Location: Poznań
(52.4062°N, 16.9234°E)
Time: 12:29:28
(UTC+01:00)

ISS - Visible Passes

Search period start: 24 January 2019 00:00
Search period end: 03 February 2019 00:00
Orbit: 404 x 410 km, 51.6° (Epoch: 24 January)

Date Brightness Start Highest point End Pass type
(mag) Time Alt. Az. Time Alt. Az. Time Alt. Az.
24 Jan -1.5 17:49:58 10° SSE 17:51:28 13° SE 17:52:04 12° SE visible
24 Jan -0.9 19:24:13 10° SW 19:24:47 14° SW 19:24:47 14° SW visible
25 Jan -2.5 18:33:09 10° SW 18:35:41 30° S 18:35:41 30° S visible
26 Jan -2.1 17:42:16 10° SSW 17:44:54 22° SSE 17:46:30 16° ESE visible
26 Jan -1.5 19:17:47 10° WSW 19:19:14 23° WSW 19:19:14 23° WSW visible
27 Jan -3.5 18:26:31 10° WSW 18:29:43 49° SSE 18:30:00 48° SE visible
28 Jan -2.8 17:35:20 10° SW 17:38:24 36° SSE 17:40:43 15° E visible
28 Jan -2.1 19:11:27 10° W 19:13:26 33° WSW 19:13:26 33° WSW visible
29 Jan -3.8 18:20:04 10° WSW 18:23:21 69° S 18:24:07 47° ESE visible
29 Jan -0.4 19:56:31 10° W 19:56:50 12° W 19:56:50 12° W visible
30 Jan -3.4 17:28:42 10° WSW 17:31:57 56° SSE 17:34:47 13° E visible
30 Jan -2.7 19:05:06 10° W 19:07:30 44° W 19:07:30 44° W visible
31 Jan -3.8 18:13:39 10° W 18:16:58 79° S 18:18:09 37° E visible
31 Jan -0.7 19:50:10 10° W 19:50:52 15° W 19:50:52 15° W visible
01 Feb -3.7 17:22:13 10° WSW 17:25:31 73° S 17:28:49 10° E visible
01 Feb -3.2 18:58:42 10° W 19:01:32 56° WSW 19:01:32 56° WSW visible
02 Feb -3.8 18:07:15 10° W 18:10:33 77° S 18:12:12 27° ESE visible
02 Feb -1.0 19:43:49 10° W 19:44:55 18° W 19:44:55 18° W visible
